Wetterdaten: Dienstag, 31.05.2022
Datum Zeit Temp. I. Temp. A. Boden 5 cm Feuchte I. Feuchte A. Sonne Luftdruck Regen Wind
31.05.2022 00:24 21,4 C 10,9 C 11,8 C 50 % 75 % 19 % 1011 hPa 0,0 l/m 0,0 km/h (0 Bft)
31.05.2022 00:29 21,4 C 11,0 C 11,7 C 50 % 74 % 19 % 1011 hPa 0,0 l/m 0,0 km/h (0 Bft)
31.05.2022 00:34 21,4 C 10,8 C 11,6 C 50 % 74 % 19 % 1011 hPa 0,0 l/m 0,0 km/h (0 Bft)
31.05.2022 00:39 21,4 C 10,6 C 11,7 C 50 % 75 % 19 % 1011 hPa 0,0 l/m 0,0 km/h (0 Bft)
31.05.2022 00:44 21,4 C 10,5 C 11,9 C 50 % 75 % 19 % 1011 hPa 0,0 l/m 0,0 km/h (0 Bft)
31.05.2022 00:49 21,4 C 10,4 C 11,8 C 50 % 75 % 19 % 1011 hPa 0,0 l/m 0,0 km/h (0 Bft)
31.05.2022 00:54 21,4 C 10,4 C 11,7 C 50 % 76 % 19 % 1011 hPa 0,0 l/m 0,0 km/h (0 Bft)
31.05.2022 00:59 21,4 C 10,2 C 11,5 C 50 % 76 % 19 % 1011 hPa 0,0 l/m 0,0 km/h (0 Bft)
31.05.2022 01:04 21,4 C 10,1 C 11,6 C 50 % 76 % 19 % 1011 hPa 0,0 l/m 0,0 km/h (0 Bft)
31.05.2022 01:09 21,4 C 10,1 C 11,7 C 50 % 77 % 19 % 1011 hPa 0,0 l/m 0,0 km/h (0 Bft)
31.05.2022 01:14 21,4 C 10,2 C 11,7 C 50 % 77 % 19 % 1011 hPa 0,0 l/m 0,0 km/h (0 Bft)
31.05.2022 01:19 21,4 C 10,0 C 11,6 C 50 % 77 % 19 % 1011 hPa 0,0 l/m 0,0 km/h (0 Bft)
31.05.2022 01:24 21,4 C 10,0 C 11,5 C 50 % 77 % 19 % 1011 hPa 0,0 l/m 0,0 km/h (0 Bft)
31.05.2022 01:29 21,4 C 9,7 C 11,6 C 50 % 77 % 19 % 1011 hPa 0,0 l/m 0,0 km/h (0 Bft)
31.05.2022 01:34 21,4 C 9,6 C 11,6 C 50 % 77 % 19 % 1011 hPa 0,0 l/m 0,0 km/h (0 Bft)
31.05.2022 01:39 21,4 C 9,6 C 11,6 C 50 % 78 % 19 % 1011 hPa 0,0 l/m 0,0 km/h (0 Bft)
31.05.2022 01:44 21,3 C 9,6 C 11,5 C 50 % 78 % 19 % 1011 hPa 0,0 l/m 0,2 km/h (0 Bft)
31.05.2022 01:49 21,3 C 9,5 C 11,6 C 50 % 78 % 19 % 1011 hPa 0,0 l/m 2,7 km/h (1 Bft)
31.05.2022 01:54 21,3 C 9,4 C 11,4 C 50 % 79 % 19 % 1011 hPa 0,0 l/m 0,0 km/h (0 Bft)
31.05.2022 01:59 21,3 C 9,4 C 11,5 C 50 % 79 % 19 % 1011 hPa 0,0 l/m 0,0 km/h (0 Bft)
31.05.2022 02:04 21,3 C 9,4 C 11,3 C 50 % 79 % 19 % 1011 hPa 0,0 l/m 0,0 km/h (0 Bft)
31.05.2022 02:09 21,3 C 9,2 C 11,2 C 50 % 78 % 19 % 1011 hPa 0,0 l/m 0,0 km/h (0 Bft)
31.05.2022 02:14 21,3 C 9,2 C 11,4 C 50 % 79 % 19 % 1011 hPa 0,0 l/m 0,0 km/h (0 Bft)
31.05.2022 02:19 21,3 C 9,2 C 11,4 C 50 % 79 % 19 % 1011 hPa 0,0 l/m 0,0 km/h (0 Bft)
31.05.2022 02:24 21,3 C 9,0 C 11,3 C 50 % 79 % 19 % 1011 hPa 0,0 l/m 0,0 km/h (0 Bft)
31.05.2022 02:29 21,3 C 8,8 C 11,1 C 50 % 79 % 19 % 1011 hPa 0,0 l/m 0,0 km/h (0 Bft)
31.05.2022 02:34 21,3 C 8,9 C 11,3 C 50 % 80 % 19 % 1011 hPa 0,0 l/m 0,0 km/h (0 Bft)
31.05.2022 02:39 21,3 C 8,9 C 11,1 C 50 % 80 % 19 % 1011 hPa 0,0 l/m 0,0 km/h (0 Bft)
31.05.2022 02:44 21,3 C 8,8 C 11,3 C 50 % 80 % 19 % 1011 hPa 0,0 l/m 0,0 km/h (0 Bft)
31.05.2022 02:49 21,3 C 8,8 C 11,3 C 50 % 80 % 19 % 1011 hPa 0,0 l/m 0,0 km/h (0 Bft)
31.05.2022 02:54 21,3 C 8,7 C 11,3 C 50 % 80 % 19 % 1011 hPa 0,0 l/m 0,0 km/h (0 Bft)
31.05.2022 02:59 21,3 C 8,6 C 11,1 C 50 % 80 % 19 % 1011 hPa 0,0 l/m 0,0 km/h (0 Bft)
31.05.2022 03:04 21,3 C 8,7 C 11,2 C 50 % 80 % 19 % 1011 hPa 0,0 l/m 0,0 km/h (0 Bft)
31.05.2022 03:09 21,3 C 8,4 C 11,1 C 50 % 81 % 19 % 1011 hPa 0,0 l/m 0,0 km/h (0 Bft)
31.05.2022 03:14 21,3 C 8,4 C 11,0 C 50 % 81 % 19 % 1011 hPa 0,0 l/m 0,0 km/h (0 Bft)
31.05.2022 03:19 21,3 C 8,4 C 11,0 C 50 % 81 % 19 % 1011 hPa 0,0 l/m 0,0 km/h (0 Bft)
31.05.2022 03:24 21,3 C 8,5 C 11,1 C 50 % 81 % 19 % 1011 hPa 0,0 l/m 0,0 km/h (0 Bft)
31.05.2022 03:29 21,3 C 8,4 C 10,8 C 50 % 81 % 19 % 1011 hPa 0,0 l/m 0,0 km/h (0 Bft)
31.05.2022 03:34 21,3 C 8,3 C 10,9 C 50 % 81 % 19 % 1011 hPa 0,0 l/m 0,0 km/h (0 Bft)
31.05.2022 03:39 21,3 C 8,2 C 10,9 C 50 % 81 % 19 % 1011 hPa 0,0 l/m 0,0 km/h (0 Bft)
31.05.2022 03:44 21,3 C 8,1 C 10,9 C 50 % 81 % 19 % 1011 hPa 0,0 l/m 0,0 km/h (0 Bft)
31.05.2022 03:49 21,3 C 8,0 C 10,8 C 50 % 81 % 19 % 1011 hPa 0,0 l/m 0,0 km/h (0 Bft)
31.05.2022 03:54 21,3 C 8,0 C 10,8 C 50 % 81 % 19 % 1011 hPa 0,0 l/m 0,0 km/h (0 Bft)
31.05.2022 03:59 21,2 C 7,8 C 10,7 C 50 % 81 % 19 % 1011 hPa 0,0 l/m 0,0 km/h (0 Bft)
31.05.2022 04:04 21,2 C 7,8 C 10,9 C 50 % 81 % 19 % 1011 hPa 0,0 l/m 0,0 km/h (0 Bft)
31.05.2022 04:09 21,2 C 7,8 C 10,8 C 50 % 81 % 19 % 1011 hPa 0,0 l/m 0,0 km/h (0 Bft)
31.05.2022 04:14 21,2 C 7,7 C 10,7 C 50 % 81 % 19 % 1011 hPa 0,0 l/m 0,0 km/h (0 Bft)
31.05.2022 04:19 21,2 C 7,7 C 10,7 C 50 % 81 % 19 % 1011 hPa 0,0 l/m 0,0 km/h (0 Bft)
31.05.2022 04:24 21,2 C 7,6 C 10,7 C 50 % 81 % 19 % 1011 hPa 0,0 l/m 0,0 km/h (0 Bft)
31.05.2022 04:29 21,2 C 7,7 C 10,7 C 50 % 81 % 19 % 1011 hPa 0,0 l/m 0,0 km/h (0 Bft)
31.05.2022 04:34 21,2 C 7,6 C 10,5 C 50 % 81 % 19 % 1011 hPa 0,0 l/m 0,0 km/h (0 Bft)
31.05.2022 04:39 21,2 C 7,4 C 10,4 C 50 % 81 % 19 % 1011 hPa 0,0 l/m 0,0 km/h (0 Bft)
31.05.2022 04:44 21,2 C 7,2 C 10,5 C 50 % 82 % 19 % 1011 hPa 0,0 l/m 0,0 km/h (0 Bft)
31.05.2022 04:49 21,2 C 7,3 C 10,5 C 50 % 82 % 19 % 1011 hPa 0,0 l/m 0,0 km/h (0 Bft)
31.05.2022 04:54 21,2 C 7,2 C 10,7 C 50 % 82 % 19 % 1011 hPa 0,0 l/m 0,0 km/h (0 Bft)
31.05.2022 04:59 21,2 C 7,2 C 10,7 C 50 % 83 % 19 % 1010 hPa 0,0 l/m 0,0 km/h (0 Bft)
31.05.2022 05:04 21,2 C 7,2 C 10,8 C 50 % 83 % 19 % 1010 hPa 0,0 l/m 0,0 km/h (0 Bft)
31.05.2022 05:09 21,2 C 7,2 C 10,6 C 50 % 83 % 19 % 1010 hPa 0,0 l/m 0,0 km/h (0 Bft)
31.05.2022 05:14 21,2 C 7,2 C 10,5 C 50 % 83 % 19 % 1010 hPa 0,0 l/m 0,0 km/h (0 Bft)
31.05.2022 05:19 21,2 C 7,2 C 10,3 C 50 % 83 % 19 % 1010 hPa 0,0 l/m 0,0 km/h (0 Bft)
31.05.2022 05:24 21,2 C 7,2 C 10,4 C 50 % 83 % 19 % 1011 hPa 0,0 l/m 0,0 km/h (0 Bft)
31.05.2022 05:29 21,2 C 7,2 C 10,4 C 50 % 83 % 19 % 1010 hPa 0,0 l/m 0,0 km/h (0 Bft)
31.05.2022 05:34 21,2 C 7,1 C 10,3 C 50 % 83 % 19 % 1010 hPa 0,0 l/m 0,0 km/h (0 Bft)
31.05.2022 05:39 21,2 C 7,1 C 10,3 C 50 % 83 % 19 % 1011 hPa 0,0 l/m 0,0 km/h (0 Bft)
31.05.2022 05:44 21,2 C 7,2 C 10,3 C 50 % 83 % 19 % 1011 hPa 0,0 l/m 0,0 km/h (0 Bft)
31.05.2022 05:49 21,2 C 7,2 C 10,3 C 50 % 83 % 19 % 1011 hPa 0,0 l/m 0,0 km/h (0 Bft)
31.05.2022 05:54 21,2 C 7,2 C 10,5 C 50 % 83 % 19 % 1011 hPa 0,0 l/m 0,0 km/h (0 Bft)
31.05.2022 05:59 21,2 C 7,4 C 10,3 C 50 % 83 % 19 % 1011 hPa 0,0 l/m 0,3 km/h (0 Bft)
31.05.2022 06:04 21,2 C 7,6 C 10,3 C 50 % 83 % 19 % 1011 hPa 0,0 l/m 0,0 km/h (0 Bft)
31.05.2022 06:09 21,2 C 8,0 C 10,4 C 50 % 82 % 19 % 1011 hPa 0,0 l/m 0,0 km/h (0 Bft)
31.05.2022 06:14 21,2 C 8,1 C 10,4 C 50 % 82 % 19 % 1011 hPa 0,0 l/m 0,0 km/h (0 Bft)
31.05.2022 06:19 21,3 C 8,3 C 10,3 C 50 % 82 % 19 % 1011 hPa 0,0 l/m 0,0 km/h (0 Bft)
31.05.2022 06:24 21,2 C 8,7 C 10,4 C 50 % 82 % 19 % 1011 hPa 0,0 l/m 0,0 km/h (0 Bft)
31.05.2022 06:29 21,2 C 8,9 C 10,5 C 50 % 81 % 19 % 1011 hPa 0,0 l/m 0,0 km/h (0 Bft)
31.05.2022 06:34 21,2 C 8,9 C 10,5 C 50 % 81 % 19 % 1011 hPa 0,0 l/m 0,0 km/h (0 Bft)
31.05.2022 06:39 21,2 C 8,8 C 10,4 C 50 % 81 % 19 % 1011 hPa 0,0 l/m 1,1 km/h (1 Bft)
31.05.2022 06:44 21,2 C 8,8 C 10,5 C 50 % 82 % 19 % 1011 hPa 0,0 l/m 0,0 km/h (0 Bft)
31.05.2022 06:49 21,2 C 8,9 C 10,5 C 50 % 82 % 19 % 1011 hPa 0,0 l/m 0,1 km/h (0 Bft)
31.05.2022 06:54 21,2 C 9,0 C 10,5 C 50 % 82 % 19 % 1011 hPa 0,0 l/m 0,3 km/h (0 Bft)
31.05.2022 06:59 21,2 C 9,0 C 10,6 C 50 % 82 % 19 % 1011 hPa 0,0 l/m 0,0 km/h (0 Bft)
31.05.2022 07:04 21,2 C 9,1 C 10,7 C 50 % 82 % 19 % 1011 hPa 0,0 l/m 0,0 km/h (0 Bft)
31.05.2022 07:09 21,2 C 9,3 C 10,7 C 50 % 82 % 19 % 1011 hPa 0,0 l/m 0,0 km/h (0 Bft)
31.05.2022 07:14 21,2 C 9,6 C 10,7 C 50 % 81 % 19 % 1011 hPa 0,0 l/m 0,0 km/h (0 Bft)
31.05.2022 07:19 21,2 C 9,9 C 10,7 C 50 % 82 % 19 % 1011 hPa 0,0 l/m 0,0 km/h (0 Bft)
31.05.2022 07:24 21,2 C 10,2 C 10,8 C 50 % 81 % 19 % 1011 hPa 0,0 l/m 0,0 km/h (0 Bft)
31.05.2022 07:29 21,2 C 10,2 C 10,8 C 50 % 80 % 19 % 1011 hPa 0,0 l/m 0,0 km/h (0 Bft)
31.05.2022 07:34 21,2 C 10,2 C 10,8 C 50 % 80 % 19 % 1011 hPa 0,0 l/m 2,3 km/h (1 Bft)
31.05.2022 07:39 21,2 C 10,5 C 10,8 C 50 % 80 % 19 % 1011 hPa 0,0 l/m 0,0 km/h (0 Bft)
31.05.2022 07:44 21,2 C 10,6 C 10,8 C 50 % 80 % 19 % 1011 hPa 0,0 l/m 0,0 km/h (0 Bft)
31.05.2022 07:49 21,2 C 10,6 C 10,8 C 50 % 80 % 19 % 1011 hPa 0,0 l/m 0,0 km/h (0 Bft)
31.05.2022 07:54 21,2 C 11,2 C 10,9 C 50 % 79 % 19 % 1011 hPa 0,0 l/m 4,1 km/h (1 Bft)
31.05.2022 07:59 21,2 C 11,6 C 10,9 C 50 % 77 % 19 % 1011 hPa 0,0 l/m 4,4 km/h (1 Bft)
31.05.2022 08:04 21,2 C 11,6 C 10,9 C 50 % 77 % 19 % 1011 hPa 0,0 l/m 5,2 km/h (1 Bft)
31.05.2022 08:09 21,2 C 11,6 C 10,9 C 50 % 78 % 19 % 1011 hPa 0,0 l/m 4,9 km/h (1 Bft)
31.05.2022 08:14 21,2 C 11,6 C 10,9 C 50 % 78 % 19 % 1011 hPa 0,0 l/m 6,3 km/h (2 Bft)
31.05.2022 08:19 21,2 C 11,5 C 10,9 C 50 % 78 % 19 % 1011 hPa 0,0 l/m 6,9 km/h (2 Bft)
31.05.2022 08:24 21,2 C 11,6 C 10,9 C 50 % 78 % 19 % 1011 hPa 0,0 l/m 4,9 km/h (1 Bft)
31.05.2022 08:29 21,2 C 11,8 C 10,9 C 50 % 77 % 19 % 1011 hPa 0,0 l/m 6,8 km/h (2 Bft)
31.05.2022 08:34 21,2 C 11,8 C 10,9 C 50 % 77 % 19 % 1011 hPa 0,0 l/m 4,6 km/h (1 Bft)
31.05.2022 08:39 21,2 C 12,0 C 10,9 C 50 % 77 % 19 % 1011 hPa 0,0 l/m 6,7 km/h (2 Bft)
31.05.2022 08:44 21,2 C 12,4 C 10,9 C 50 % 77 % 19 % 1011 hPa 0,0 l/m 0,7 km/h (0 Bft)
31.05.2022 08:49 21,2 C 12,6 C 10,9 C 50 % 76 % 19 % 1011 hPa 0,0 l/m 2,5 km/h (1 Bft)
31.05.2022 08:54 21,2 C 12,6 C 10,9 C 50 % 75 % 19 % 1011 hPa 0,0 l/m 4,8 km/h (1 Bft)
31.05.2022 08:59 21,2 C 12,8 C 10,9 C 50 % 75 % 19 % 1011 hPa 0,0 l/m 5,7 km/h (1 Bft)
31.05.2022 09:04 21,2 C 13,2 C 10,9 C 50 % 74 % 19 % 1011 hPa 0,0 l/m 4,9 km/h (1 Bft)
31.05.2022 09:09 21,2 C 13,5 C 10,9 C 50 % 74 % 19 % 1011 hPa 0,0 l/m 4,2 km/h (1 Bft)
31.05.2022 09:14 21,2 C 13,5 C 11,0 C 50 % 74 % 19 % 1011 hPa 0,0 l/m 5,0 km/h (1 Bft)
31.05.2022 09:19 21,2 C 13,6 C 10,9 C 50 % 74 % 19 % 1011 hPa 0,0 l/m 4,3 km/h (1 Bft)
31.05.2022 09:24 21,3 C 13,8 C 10,9 C 50 % 73 % 19 % 1011 hPa 0,0 l/m 4,3 km/h (1 Bft)
31.05.2022 09:29 21,2 C 13,8 C 11,0 C 51 % 73 % 19 % 1011 hPa 0,0 l/m 5,6 km/h (1 Bft)
31.05.2022 09:34 21,2 C 14,0 C 11,0 C 51 % 72 % 19 % 1011 hPa 0,0 l/m 4,4 km/h (1 Bft)
31.05.2022 09:39 21,3 C 14,6 C 10,9 C 51 % 72 % 19 % 1011 hPa 0,0 l/m 8,9 km/h (2 Bft)
31.05.2022 09:44 21,3 C 14,6 C 11,0 C 51 % 72 % 19 % 1011 hPa 0,0 l/m 9,7 km/h (2 Bft)
31.05.2022 09:49 21,3 C 15,2 C 10,9 C 51 % 70 % 19 % 1011 hPa 0,0 l/m 10,0 km/h (2 Bft)
31.05.2022 09:54 21,3 C 15,4 C 11,0 C 51 % 70 % 19 % 1011 hPa 0,0 l/m 8,5 km/h (2 Bft)
31.05.2022 09:59 21,3 C 15,5 C 10,9 C 51 % 69 % 19 % 1011 hPa 0,0 l/m 7,9 km/h (2 Bft)
31.05.2022 10:04 21,3 C 16,0 C 10,9 C 51 % 67 % 19 % 1011 hPa 0,0 l/m 9,1 km/h (2 Bft)
31.05.2022 10:09 21,3 C 16,1 C 10,9 C 51 % 67 % 19 % 1011 hPa 0,0 l/m 9,6 km/h (2 Bft)
31.05.2022 10:14 21,3 C 16,2 C 10,8 C 51 % 66 % 19 % 1011 hPa 0,0 l/m 11,9 km/h (2 Bft)
31.05.2022 10:19 21,3 C 16,2 C 10,9 C 51 % 66 % 19 % 1011 hPa 0,0 l/m 14,0 km/h (3 Bft)
31.05.2022 10:24 21,4 C 16,4 C 10,9 C 51 % 65 % 19 % 1011 hPa 0,0 l/m 12,4 km/h (3 Bft)
31.05.2022 10:29 21,4 C 16,4 C 10,9 C 51 % 64 % 19 % 1011 hPa 0,0 l/m 13,5 km/h (3 Bft)
31.05.2022 10:34 21,4 C 16,4 C 11,0 C 51 % 65 % 19 % 1011 hPa 0,0 l/m 14,2 km/h (3 Bft)
31.05.2022 10:39 21,4 C 16,7 C 11,2 C 51 % 64 % 19 % 1010 hPa 0,0 l/m 15,0 km/h (3 Bft)
31.05.2022 10:44 21,4 C 16,9 C 11,2 C 51 % 64 % 19 % 1010 hPa 0,0 l/m 11,6 km/h (2 Bft)
31.05.2022 10:49 21,4 C 17,1 C 11,0 C 51 % 64 % 19 % 1010 hPa 0,0 l/m 10,9 km/h (2 Bft)
31.05.2022 10:54 21,4 C 17,2 C 11,2 C 51 % 62 % 19 % 1010 hPa 0,0 l/m 13,1 km/h (3 Bft)
31.05.2022 10:59 21,4 C 17,3 C 11,1 C 51 % 62 % 19 % 1010 hPa 0,0 l/m 12,6 km/h (3 Bft)
31.05.2022 11:04 21,4 C 17,5 C 11,3 C 51 % 61 % 19 % 1010 hPa 0,0 l/m 7,4 km/h (2 Bft)
31.05.2022 11:09 21,4 C 17,6 C 11,0 C 51 % 61 % 19 % 1010 hPa 0,0 l/m 12,6 km/h (3 Bft)
31.05.2022 11:14 21,4 C 17,8 C 10,9 C 51 % 61 % 19 % 1010 hPa 0,0 l/m 13,3 km/h (3 Bft)
31.05.2022 11:19 21,4 C 18,2 C 10,9 C 51 % 59 % 19 % 1010 hPa 0,0 l/m 15,6 km/h (3 Bft)
31.05.2022 11:24 21,4 C 18,4 C 11,1 C 51 % 59 % 19 % 1010 hPa 0,0 l/m 13,8 km/h (3 Bft)
31.05.2022 11:29 21,4 C 18,4 C 11,0 C 51 % 58 % 19 % 1010 hPa 0,0 l/m 12,4 km/h (3 Bft)
31.05.2022 11:34 21,4 C 18,6 C 11,0 C 51 % 59 % 19 % 1010 hPa 0,0 l/m 14,4 km/h (3 Bft)
31.05.2022 11:39 21,4 C 18,6 C 11,2 C 51 % 59 % 19 % 1010 hPa 0,0 l/m 15,8 km/h (3 Bft)
31.05.2022 11:44 21,4 C 18,8 C 11,2 C 51 % 57 % 19 % 1010 hPa 0,0 l/m 13,5 km/h (3 Bft)
31.05.2022 11:49 21,4 C 18,8 C 11,6 C 51 % 56 % 19 % 1010 hPa 0,0 l/m 11,6 km/h (2 Bft)
31.05.2022 11:54 21,5 C 18,9 C 11,7 C 51 % 55 % 19 % 1010 hPa 0,0 l/m 15,5 km/h (3 Bft)
31.05.2022 11:59 21,4 C 19,2 C 11,1 C 51 % 55 % 19 % 1010 hPa 0,0 l/m 12,1 km/h (2 Bft)
31.05.2022 12:04 21,4 C 19,3 C 11,8 C 51 % 54 % 19 % 1010 hPa 0,0 l/m 12,1 km/h (2 Bft)
31.05.2022 12:09 21,5 C 19,5 C 11,4 C 51 % 54 % 19 % 1010 hPa 0,0 l/m 12,1 km/h (2 Bft)
31.05.2022 12:14 21,5 C 19,6 C 11,1 C 51 % 54 % 19 % 1010 hPa 0,0 l/m 9,7 km/h (2 Bft)
31.05.2022 12:19 21,5 C 19,7 C 11,1 C 50 % 52 % 19 % 1010 hPa 0,0 l/m 10,9 km/h (2 Bft)
31.05.2022 12:24 21,5 C 19,9 C 11,5 C 50 % 50 % 19 % 1010 hPa 0,0 l/m 10,2 km/h (2 Bft)
31.05.2022 12:29 21,6 C 20,0 C 11,2 C 49 % 49 % 19 % 1010 hPa 0,0 l/m 13,5 km/h (3 Bft)
31.05.2022 12:34 21,6 C 20,1 C 11,1 C 49 % 49 % 19 % 1010 hPa 0,0 l/m 15,0 km/h (3 Bft)
31.05.2022 12:39 21,6 C 20,2 C 11,2 C 49 % 48 % 19 % 1010 hPa 0,0 l/m 15,0 km/h (3 Bft)
31.05.2022 12:44 21,6 C 20,2 C 11,3 C 49 % 46 % 19 % 1010 hPa 0,0 l/m 15,0 km/h (3 Bft)
31.05.2022 12:49 21,5 C 20,4 C 11,3 C 50 % 44 % 19 % 1010 hPa 0,0 l/m 18,4 km/h (3 Bft)
31.05.2022 12:54 21,5 C 20,6 C 11,4 C 50 % 47 % 19 % 1010 hPa 0,0 l/m 15,5 km/h (3 Bft)
31.05.2022 12:59 21,5 C 20,8 C 11,4 C 50 % 48 % 19 % 1010 hPa 0,0 l/m 15,5 km/h (3 Bft)
31.05.2022 13:04 21,5 C 20,9 C 11,4 C 50 % 46 % 19 % 1009 hPa 0,0 l/m 15,5 km/h (3 Bft)
31.05.2022 13:09 21,5 C 21,1 C 11,5 C 50 % 49 % 19 % 1010 hPa 0,0 l/m 15,5 km/h (3 Bft)
31.05.2022 13:14 21,4 C 21,1 C 11,4 C 50 % 48 % 19 % 1010 hPa 0,0 l/m 15,5 km/h (3 Bft)
31.05.2022 13:19 21,5 C 21,2 C 11,5 C 50 % 47 % 19 % 1010 hPa 0,0 l/m 15,5 km/h (3 Bft)
31.05.2022 13:24 21,5 C 21,1 C 11,6 C 50 % 46 % 19 % 1009 hPa 0,0 l/m 15,5 km/h (3 Bft)
31.05.2022 13:29 21,5 C 21,4 C 12,0 C 50 % 46 % 19 % 1009 hPa 0,0 l/m 15,5 km/h (3 Bft)
31.05.2022 13:34 21,5 C 21,5 C 12,2 C 50 % 46 % 19 % 1009 hPa 0,0 l/m 15,5 km/h (3 Bft)
31.05.2022 13:39 21,5 C 21,6 C 11,7 C 50 % 44 % 19 % 1009 hPa 0,0 l/m 15,5 km/h (3 Bft)
31.05.2022 13:44 21,5 C 21,6 C 11,7 C 50 % 45 % 19 % 1009 hPa 0,0 l/m 15,5 km/h (3 Bft)
31.05.2022 13:49 21,5 C 21,5 C 11,6 C 50 % 45 % 19 % 1009 hPa 0,0 l/m 15,5 km/h (3 Bft)
31.05.2022 13:54 21,5 C 21,6 C 12,2 C 50 % 45 % 19 % 1009 hPa 0,0 l/m 15,5 km/h (3 Bft)
31.05.2022 13:59 21,5 C 21,7 C 11,7 C 50 % 44 % 19 % 1009 hPa 0,0 l/m 15,5 km/h (3 Bft)
31.05.2022 14:04 21,4 C 21,8 C 11,6 C 50 % 45 % 19 % 1009 hPa 0,0 l/m 12,3 km/h (3 Bft)
31.05.2022 14:09 21,4 C 21,8 C 12,0 C 50 % 44 % 19 % 1009 hPa 0,0 l/m 12,5 km/h (3 Bft)
31.05.2022 14:14 21,4 C 21,8 C 11,7 C 50 % 44 % 19 % 1009 hPa 0,0 l/m 6,7 km/h (2 Bft)
31.05.2022 14:19 21,5 C 22,0 C 11,9 C 50 % 44 % 19 % 1009 hPa 0,0 l/m 20,1 km/h (4 Bft)
31.05.2022 14:24 21,4 C 22,0 C 11,9 C 51 % 44 % 19 % 1009 hPa 0,0 l/m 20,1 km/h (4 Bft)
31.05.2022 14:29 21,4 C 22,1 C 11,8 C 51 % 45 % 19 % 1009 hPa 0,0 l/m 20,1 km/h (4 Bft)
31.05.2022 14:34 21,4 C 22,0 C 12,1 C 51 % 44 % 19 % 1009 hPa 0,0 l/m 20,1 km/h (4 Bft)
31.05.2022 14:39 21,4 C 22,0 C 11,8 C 51 % 44 % 19 % 1009 hPa 0,0 l/m 20,1 km/h (4 Bft)
31.05.2022 14:44 21,4 C 22,2 C 12,1 C 51 % 44 % 19 % 1009 hPa 0,0 l/m 20,1 km/h (4 Bft)
31.05.2022 14:49 21,4 C 22,3 C 11,9 C 51 % 45 % 19 % 1009 hPa 0,0 l/m 20,1 km/h (4 Bft)
31.05.2022 14:54 21,4 C 22,4 C 11,9 C 51 % 46 % 19 % 1009 hPa 0,0 l/m 20,1 km/h (4 Bft)
31.05.2022 14:59 21,5 C 22,5 C 11,8 C 51 % 44 % 19 % 1008 hPa 0,0 l/m 20,1 km/h (4 Bft)
31.05.2022 15:04 21,5 C 22,6 C 13,0 C 51 % 43 % 19 % 1008 hPa 0,0 l/m 8,3 km/h (2 Bft)
31.05.2022 15:09 21,5 C 22,5 C 12,1 C 51 % 42 % 19 % 1008 hPa 0,0 l/m 8,3 km/h (2 Bft)
31.05.2022 15:14 21,5 C 22,5 C 12,1 C 51 % 42 % 19 % 1008 hPa 0,0 l/m 8,3 km/h (2 Bft)
31.05.2022 15:19 21,5 C 22,5 C 12,6 C 51 % 43 % 19 % 1008 hPa 0,0 l/m 8,3 km/h (2 Bft)
31.05.2022 15:24 21,5 C 22,4 C 12,2 C 51 % 43 % 19 % 1008 hPa 0,0 l/m 8,3 km/h (2 Bft)
31.05.2022 15:29 21,5 C 22,5 C 12,2 C 51 % 44 % 19 % 1008 hPa 0,0 l/m 8,3 km/h (2 Bft)
31.05.2022 15:34 21,5 C 22,6 C 12,2 C 51 % 45 % 19 % 1008 hPa 0,0 l/m 4,5 km/h (1 Bft)
31.05.2022 15:39 21,5 C 22,8 C 12,2 C 51 % 45 % 19 % 1008 hPa 0,0 l/m 4,5 km/h (1 Bft)
31.05.2022 15:44 21,5 C 22,9 C 12,3 C 51 % 44 % 19 % 1008 hPa 0,0 l/m 4,5 km/h (1 Bft)
31.05.2022 15:49 21,5 C 23,1 C 12,3 C 51 % 44 % 19 % 1008 hPa 0,0 l/m 4,5 km/h (1 Bft)
31.05.2022 15:54 21,5 C 22,9 C 12,3 C 51 % 45 % 19 % 1008 hPa 0,0 l/m 4,5 km/h (1 Bft)
31.05.2022 15:59 21,5 C 23,0 C 12,4 C 51 % 43 % 19 % 1008 hPa 0,0 l/m 4,5 km/h (1 Bft)
31.05.2022 16:04 21,6 C 23,2 C 12,3 C 51 % 43 % 19 % 1008 hPa 0,0 l/m 4,5 km/h (1 Bft)
31.05.2022 16:09 21,6 C 23,2 C 12,3 C 50 % 41 % 19 % 1008 hPa 0,0 l/m 4,5 km/h (1 Bft)
31.05.2022 16:14 21,6 C 23,1 C 12,3 C 50 % 42 % 19 % 1008 hPa 0,0 l/m 4,5 km/h (1 Bft)
31.05.2022 16:19 21,6 C 22,9 C 12,4 C 50 % 43 % 19 % 1008 hPa 0,0 l/m 4,5 km/h (1 Bft)
31.05.2022 16:24 21,6 C 22,8 C 13,1 C 50 % 42 % 19 % 1008 hPa 0,0 l/m 4,5 km/h (1 Bft)
31.05.2022 16:29 21,6 C 22,7 C 13,5 C 50 % 43 % 19 % 1008 hPa 0,0 l/m 4,5 km/h (1 Bft)
31.05.2022 16:34 21,6 C 22,6 C 13,5 C 50 % 44 % 19 % 1008 hPa 0,0 l/m 4,5 km/h (1 Bft)
31.05.2022 16:39 21,7 C 22,5 C 13,1 C 51 % 44 % 19 % 1008 hPa 0,0 l/m 4,5 km/h (1 Bft)
31.05.2022 16:44 21,7 C 22,4 C 12,6 C 51 % 44 % 19 % 1008 hPa 0,0 l/m 6,8 km/h (2 Bft)
31.05.2022 16:49 21,7 C 22,4 C 12,7 C 51 % 44 % 19 % 1008 hPa 0,0 l/m 6,8 km/h (2 Bft)
31.05.2022 16:54 21,8 C 22,6 C 12,7 C 51 % 43 % 19 % 1008 hPa 0,0 l/m 6,8 km/h (2 Bft)
31.05.2022 16:59 21,8 C 23,0 C 12,6 C 51 % 42 % 19 % 1008 hPa 0,0 l/m 6,8 km/h (2 Bft)
31.05.2022 17:04 21,7 C 23,1 C 12,7 C 51 % 42 % 19 % 1007 hPa 0,0 l/m 6,8 km/h (2 Bft)
31.05.2022 17:09 21,8 C 23,1 C 12,8 C 52 % 41 % 19 % 1007 hPa 0,0 l/m 6,8 km/h (2 Bft)
31.05.2022 17:14 21,8 C 23,1 C 12,8 C 52 % 41 % 19 % 1007 hPa 0,0 l/m 6,8 km/h (2 Bft)
31.05.2022 17:19 21,8 C 22,9 C 12,8 C 52 % 41 % 19 % 1007 hPa 0,0 l/m 6,8 km/h (2 Bft)
31.05.2022 17:24 21,8 C 23,0 C 12,8 C 52 % 42 % 19 % 1007 hPa 0,0 l/m 6,8 km/h (2 Bft)
31.05.2022 17:29 21,9 C 23,0 C 13,0 C 53 % 40 % 19 % 1007 hPa 0,0 l/m 6,8 km/h (2 Bft)
31.05.2022 17:34 21,9 C 22,6 C 12,9 C 54 % 40 % 19 % 1007 hPa 0,0 l/m 6,8 km/h (2 Bft)
31.05.2022 17:39 21,9 C 22,6 C 12,9 C 54 % 40 % 19 % 1007 hPa 0,0 l/m 6,8 km/h (2 Bft)
31.05.2022 17:44 21,9 C 22,5 C 12,9 C 55 % 41 % 19 % 1007 hPa 0,0 l/m 6,8 km/h (2 Bft)
31.05.2022 17:49 21,8 C 22,4 C 13,1 C 55 % 41 % 19 % 1007 hPa 0,0 l/m 6,8 km/h (2 Bft)
31.05.2022 17:54 21,8 C 22,4 C 13,0 C 55 % 43 % 19 % 1007 hPa 0,0 l/m 2,0 km/h (1 Bft)
31.05.2022 17:59 21,8 C 22,2 C 13,0 C 55 % 43 % 19 % 1007 hPa 0,0 l/m 2,0 km/h (1 Bft)
31.05.2022 18:04 21,8 C 22,1 C 13,1 C 55 % 42 % 19 % 1007 hPa 0,0 l/m 0,0 km/h (0 Bft)
31.05.2022 18:09 21,7 C 22,0 C 13,2 C 55 % 42 % 19 % 1007 hPa 0,0 l/m 0,8 km/h (0 Bft)
31.05.2022 18:14 21,7 C 22,0 C 13,3 C 55 % 42 % 19 % 1008 hPa 0,0 l/m 2,2 km/h (1 Bft)
31.05.2022 18:19 21,7 C 21,8 C 13,2 C 55 % 43 % 19 % 1008 hPa 0,0 l/m 9,0 km/h (2 Bft)
31.05.2022 18:24 21,7 C 21,5 C 13,6 C 55 % 47 % 19 % 1008 hPa 0,0 l/m 6,5 km/h (2 Bft)
31.05.2022 18:29 21,7 C 21,0 C 14,0 C 55 % 50 % 19 % 1008 hPa 0,0 l/m 17,6 km/h (3 Bft)
31.05.2022 18:34 21,7 C 19,9 C 13,9 C 54 % 57 % 19 % 1008 hPa 0,0 l/m 14,2 km/h (3 Bft)
31.05.2022 18:39 21,7 C 19,0 C 14,0 C 54 % 59 % 19 % 1008 hPa 0,0 l/m 9,6 km/h (2 Bft)
31.05.2022 18:44 21,7 C 18,7 C 14,0 C 54 % 62 % 19 % 1009 hPa 0,0 l/m 15,8 km/h (3 Bft)
31.05.2022 18:49 21,7 C 18,4 C 14,0 C 54 % 62 % 19 % 1009 hPa 0,3 l/m 9,4 km/h (2 Bft)
31.05.2022 18:54 21,7 C 17,8 C 14,0 C 54 % 66 % 19 % 1009 hPa 0,0 l/m 9,4 km/h (2 Bft)
31.05.2022 18:59 21,6 C 17,3 C 13,8 C 54 % 69 % 19 % 1009 hPa 0,0 l/m 6,3 km/h (2 Bft)
31.05.2022 19:04 21,6 C 17,2 C 13,8 C 54 % 70 % 19 % 1009 hPa 0,0 l/m 9,7 km/h (2 Bft)
31.05.2022 19:09 21,6 C 16,9 C 13,8 C 54 % 71 % 19 % 1009 hPa 0,0 l/m 8,7 km/h (2 Bft)
31.05.2022 19:14 21,6 C 16,7 C 13,7 C 54 % 72 % 19 % 1009 hPa 0,0 l/m 7,4 km/h (2 Bft)
31.05.2022 19:19 21,6 C 16,7 C 13,7 C 54 % 72 % 19 % 1009 hPa 0,0 l/m 2,1 km/h (1 Bft)
31.05.2022 19:24 21,6 C 16,6 C 13,7 C 54 % 73 % 19 % 1009 hPa 0,0 l/m 4,5 km/h (1 Bft)
31.05.2022 19:29 21,6 C 16,6 C 13,7 C 54 % 74 % 19 % 1009 hPa 0,0 l/m 7,6 km/h (2 Bft)
31.05.2022 19:34 21,6 C 16,6 C 13,7 C 54 % 74 % 19 % 1009 hPa 0,0 l/m 11,5 km/h (2 Bft)
31.05.2022 19:39 21,6 C 16,4 C 13,7 C 54 % 75 % 19 % 1009 hPa 0,0 l/m 11,1 km/h (2 Bft)
31.05.2022 19:44 21,7 C 16,2 C 13,7 C 54 % 75 % 19 % 1009 hPa 0,0 l/m 7,4 km/h (2 Bft)
31.05.2022 19:49 21,6 C 16,1 C 13,7 C 54 % 75 % 19 % 1009 hPa 0,0 l/m 7,2 km/h (2 Bft)
31.05.2022 19:54 21,6 C 16,0 C 13,7 C 54 % 76 % 19 % 1009 hPa 0,0 l/m 4,6 km/h (1 Bft)
31.05.2022 19:59 21,6 C 16,0 C 13,7 C 54 % 76 % 19 % 1009 hPa 0,0 l/m 0,1 km/h (0 Bft)
31.05.2022 20:04 21,6 C 16,0 C 13,7 C 54 % 77 % 19 % 1009 hPa 0,0 l/m 2,4 km/h (1 Bft)
31.05.2022 20:09 21,6 C 15,9 C 13,7 C 54 % 76 % 19 % 1009 hPa 0,0 l/m 0,6 km/h (0 Bft)
31.05.2022 20:14 21,6 C 15,9 C 13,7 C 54 % 77 % 19 % 1009 hPa 0,0 l/m 5,4 km/h (1 Bft)
31.05.2022 20:19 21,6 C 15,8 C 13,7 C 54 % 77 % 19 % 1009 hPa 0,0 l/m 0,1 km/h (0 Bft)
31.05.2022 20:24 21,6 C 15,8 C 13,7 C 54 % 77 % 19 % 1009 hPa 0,0 l/m 0,0 km/h (0 Bft)
31.05.2022 20:29 21,6 C 15,8 C 13,7 C 54 % 76 % 19 % 1010 hPa 0,0 l/m 0,0 km/h (0 Bft)
31.05.2022 20:34 21,6 C 15,8 C 13,7 C 54 % 76 % 19 % 1010 hPa 0,0 l/m 0,1 km/h (0 Bft)
31.05.2022 20:39 21,6 C 15,9 C 13,8 C 54 % 76 % 19 % 1010 hPa 0,0 l/m 2,2 km/h (1 Bft)
31.05.2022 20:44 21,6 C 15,8 C 13,8 C 54 % 76 % 19 % 1010 hPa 0,0 l/m 0,3 km/h (0 Bft)
31.05.2022 20:49 21,6 C 15,7 C 13,7 C 54 % 77 % 19 % 1010 hPa 0,3 l/m 0,0 km/h (0 Bft)
31.05.2022 20:54 21,6 C 15,6 C 13,7 C 54 % 77 % 19 % 1010 hPa 0,0 l/m 0,0 km/h (0 Bft)
31.05.2022 20:59 21,6 C 15,5 C 13,7 C 54 % 77 % 19 % 1010 hPa 0,0 l/m 0,3 km/h (0 Bft)
31.05.2022 21:04 21,5 C 15,5 C 13,8 C 54 % 78 % 19 % 1010 hPa 0,0 l/m 3,6 km/h (1 Bft)
31.05.2022 21:09 21,6 C 15,4 C 13,8 C 54 % 79 % 19 % 1011 hPa 0,0 l/m 7,8 km/h (2 Bft)
31.05.2022 21:14 21,5 C 15,4 C 13,8 C 54 % 79 % 19 % 1011 hPa 0,3 l/m 6,5 km/h (2 Bft)
31.05.2022 21:19 21,6 C 15,4 C 13,8 C 54 % 79 % 19 % 1011 hPa 0,3 l/m 0,4 km/h (0 Bft)
31.05.2022 21:24 21,6 C 15,2 C 13,8 C 54 % 80 % 19 % 1011 hPa 0,3 l/m 1,3 km/h (1 Bft)
31.05.2022 21:29 21,6 C 15,2 C 13,8 C 54 % 80 % 19 % 1011 hPa 0,7 l/m 0,1 km/h (0 Bft)
31.05.2022 21:34 21,5 C 15,1 C 13,8 C 54 % 81 % 19 % 1011 hPa 0,0 l/m 0,0 km/h (0 Bft)
31.05.2022 21:39 21,5 C 15,0 C 13,8 C 54 % 81 % 19 % 1011 hPa 0,3 l/m 0,9 km/h (0 Bft)
31.05.2022 21:44 21,5 C 15,0 C 13,7 C 54 % 81 % 19 % 1011 hPa 0,0 l/m 0,2 km/h (0 Bft)
31.05.2022 21:49 21,5 C 15,0 C 13,7 C 54 % 81 % 19 % 1011 hPa 0,0 l/m 2,5 km/h (1 Bft)
31.05.2022 21:54 21,5 C 15,0 C 13,7 C 54 % 81 % 19 % 1011 hPa 0,0 l/m 2,8 km/h (1 Bft)
31.05.2022 21:59 21,5 C 14,8 C 13,7 C 54 % 81 % 19 % 1011 hPa 0,0 l/m 1,2 km/h (1 Bft)
31.05.2022 22:04 21,5 C 14,7 C 13,6 C 54 % 82 % 19 % 1011 hPa 0,0 l/m 0,1 km/h (0 Bft)
31.05.2022 22:09 21,5 C 14,5 C 13,6 C 54 % 82 % 19 % 1012 hPa 0,0 l/m 0,7 km/h (0 Bft)
31.05.2022 22:14 21,6 C 14,5 C 13,6 C 54 % 82 % 19 % 1011 hPa 0,0 l/m 4,2 km/h (1 Bft)
31.05.2022 22:19 21,6 C 14,4 C 13,6 C 54 % 82 % 19 % 1011 hPa 0,0 l/m 3,0 km/h (1 Bft)
31.05.2022 22:24 21,6 C 14,4 C 13,8 C 54 % 82 % 19 % 1011 hPa 0,0 l/m 5,0 km/h (1 Bft)
31.05.2022 22:29 21,5 C 14,3 C 13,7 C 54 % 82 % 19 % 1011 hPa 0,0 l/m 1,6 km/h (1 Bft)
31.05.2022 22:34 21,6 C 14,4 C 13,7 C 54 % 82 % 19 % 1011 hPa 0,3 l/m 2,4 km/h (1 Bft)
31.05.2022 22:39 21,6 C 14,4 C 13,6 C 54 % 82 % 19 % 1012 hPa 0,0 l/m 0,3 km/h (0 Bft)
31.05.2022 22:44 21,6 C 14,4 C 13,7 C 54 % 82 % 19 % 1012 hPa 0,0 l/m 2,5 km/h (1 Bft)
31.05.2022 22:49 21,6 C 14,4 C 13,6 C 54 % 82 % 19 % 1011 hPa 0,0 l/m 4,8 km/h (1 Bft)
31.05.2022 22:54 21,6 C 14,4 C 13,6 C 54 % 82 % 19 % 1011 hPa 0,0 l/m 0,3 km/h (0 Bft)
31.05.2022 22:59 21,6 C 14,4 C 13,6 C 54 % 82 % 19 % 1011 hPa 0,0 l/m 1,2 km/h (1 Bft)
31.05.2022 23:04 21,6 C 14,4 C 13,6 C 54 % 82 % 19 % 1011 hPa 0,0 l/m 0,3 km/h (0 Bft)
31.05.2022 23:09 21,6 C 14,4 C 13,6 C 54 % 82 % 19 % 1011 hPa 0,0 l/m 0,2 km/h (0 Bft)
31.05.2022 23:14 21,6 C 14,4 C 13,6 C 54 % 82 % 19 % 1011 hPa 0,0 l/m 2,2 km/h (1 Bft)
31.05.2022 23:19 21,6 C 14,4 C 13,6 C 54 % 82 % 19 % 1011 hPa 0,0 l/m 2,7 km/h (1 Bft)
31.05.2022 23:24 21,5 C 14,4 C 13,6 C 54 % 82 % 19 % 1011 hPa 0,0 l/m 0,6 km/h (0 Bft)
31.05.2022 23:29 21,6 C 14,4 C 13,6 C 54 % 82 % 19 % 1012 hPa 0,3 l/m 3,9 km/h (1 Bft)
31.05.2022 23:34 21,5 C 14,3 C 13,6 C 54 % 82 % 19 % 1012 hPa 0,0 l/m 0,0 km/h (0 Bft)
31.05.2022 23:39 21,6 C 14,3 C 13,5 C 54 % 82 % 19 % 1012 hPa 0,0 l/m 0,1 km/h (0 Bft)
31.05.2022 23:44 21,5 C 14,3 C 13,6 C 54 % 82 % 19 % 1012 hPa 0,0 l/m 4,6 km/h (1 Bft)
31.05.2022 23:49 21,5 C 14,3 C 13,5 C 54 % 82 % 19 % 1012 hPa 0,0 l/m 0,0 km/h (0 Bft)
31.05.2022 23:54 21,5 C 14,2 C 13,5 C 54 % 82 % 19 % 1012 hPa 0,0 l/m 4,1 km/h (1 Bft)
31.05.2022 23:59 21,5 C 14,2 C 13,5 C 54 % 82 % 19 % 1012 hPa 0,0 l/m 3,8 km/h (1 Bft)
_ Min-Zeit 03:59 05:34 05:19 12:29 17:29 - 17:04 - 00:24
Minimum _ 21,2 C 7,1 C 10,3 C 49 % 40 % - 1007 hPa - 0,0 km/h (0 Bft)
_ Max-Zeit 17:29 16:04 18:29 17:44 04:59 00:24 22:09 21:29 14:19
Maximum _ 21,9 C 23,2 C 14,0 C 55 % 83 % 19 % 1012 hPa 0,7 l/m 20,1 km/h
S (4 Bft)
Durchschnitt _ 21,4 C 15,0 C 11,9 C 51 % 68 % #1:33 h 1010 hPa #3,4 l/m 5,2 km/h (1 Bft)